This demonstration page uses our WeatherBlox Daily Observations layout. Learn more.

Hourly Observations for May 8, 2016

Temp ( °F °C ) Dew Point ( °F °C ) Humidity (%) Winds ( mph kmh ) Pressure ( in mb ) Visibility ( mi km ) Precip ( " mm )
12:15 am 00:15 Clear 59 15 46 7.5 61 61 E 14 22 29.77 1008 7 11.26538 0 0
12:35 am 00:35 Clear 59 15.1 45 7.2 59 59 E 14 22 29.77 1008 7 11.26538 0 0
12:55 am 00:55 Partly Cloudy 59 15.1 45 7.3 60 60 E 18 30 29.74 1007 7 11.26538 0 0
1:15 am 01:15 Partly Cloudy 59 15 45 7.3 60 60 E 21 33 29.74 1007 10 16.0934 0 0
1:35 am 01:35 Clear with Nearby Thunderstorms 58 14.4 46 7.9 65 65 ENE 10 17 29.74 1007 10 16.0934 0 0
1:55 am 01:55 Partly Cloudy with Light Thunderstorms 57 14.1 47 8.5 69 69 E 9 15 29.74 1007 7 11.26538 0 0
2:15 am 02:15 Cloudy with Thunderstorms 57 13.7 47 8.6 72 72 E 12 19 29.77 1008 7 11.26538 0.01 0.254
2:35 am 02:35 Cloudy 57 13.7 48 9.1 74 74 E 15 24 29.77 1008 7 11.26538 0.01 0.254
2:55 am 02:55 Cloudy 56 13.5 49 9.5 77 77 E 15 24 29.77 1008 7 11.26538 0.01 0.254
3:15 am 03:15 Partly Cloudy 56 13.1 48 9 76 76 E 16 26 29.77 1008 7 11.26538 0 0
3:35 am 03:35 Clear 54 12.4 48 9 80 80 ENE 12 19 29.77 1008 7 11.26538 0 0
3:55 am 03:55 Clear 54 12.1 49 9.3 83 83 ENE 9 15 29.77 1008 7 11.26538 0 0
4:15 am 04:15 Clear 53 11.5 49 9.2 86 86 ENE 6 9 29.77 1008 7 11.26538 0 0
4:35 am 04:35 Clear 52 11 48 9 88 88 ENE 9 15 29.77 1008 7 11.26538 0 0
4:55 am 04:55 Clear 51 10.6 48 8.7 88 88 ENE 9 15 29.77 1008 7 11.26538 0 0
5:15 am 05:15 Clear 51 10.3 47 8.2 87 87 ENE 6 9 29.8 1009 7 11.26538 0 0
5:35 am 05:35 Clear 50 9.8 46 8 89 89 ENE 7 11 29.77 1008 7 11.26538 0 0
5:55 am 05:55 Clear 49 9.6 46 8 90 90 ENE 8 13 29.77 1008 7 11.26538 0 0
6:15 am 06:15 Clear 49 9.3 46 7.7 90 90 ENE 9 15 29.77 1008 7 11.26538 0 0
6:35 am 06:35 Sunny 49 9.2 46 7.7 90 90 ENE 10 17 29.77 1008 7 11.26538 0 0
6:55 am 06:55 Sunny 49 9.5 46 7.8 89 89 E 9 15 29.77 1008 7 11.26538 0 0
7:15 am 07:15 Sunny 50 10 47 8.1 88 88 E 8 13 29.71 1006 7 11.26538 0 0
7:35 am 07:35 Sunny 51 10.6 47 8.6 88 88 E 13 20 29.71 1006 7 11.26538 0 0
7:55 am 07:55 Sunny 53 11.4 49 9.3 87 87 E 9 15 29.71 1006 7 11.26538 0 0
8:15 am 08:15 Sunny 54 12.2 50 10 87 87 E 8 13 29.71 1006 7 11.26538 0 0
8:35 am 08:35 Sunny 55 13 51 10.5 85 85 ENE 5 7 29.74 1007 7 11.26538 0 0
8:55 am 08:55 Partly Cloudy 57 13.8 52 11.1 84 84 ENE 6 9 29.71 1006 7 11.26538 0 0
9:15 am 09:15 Mostly Cloudy 57 13.7 52 11 84 84 ENE 5 7 29.71 1006 7 11.26538 0 0
9:35 am 09:35 Cloudy 57 14 52 11.2 83 83 ENE 7 11 29.71 1006 7 11.26538 0 0
9:55 am 09:55 Cloudy 58 14.4 53 11.5 83 83 NE 6 9 29.71 1006 7 11.26538 0 0
10:15 am 10:15 Mostly Cloudy 59 15.1 54 12.2 83 83 ENE 15 24 29.68 1005 7 11.26538 0 0
10:35 am 10:35 Mostly Cloudy 60 15.8 55 12.6 81 81 ENE 9 15 29.71 1006 7 11.26538 0 0
10:55 am 10:55 Partly Cloudy 62 16.6 55 12.9 79 79 ENE 10 17 29.68 1005 7 11.26538 0 0
11:15 am 11:15 Partly Cloudy 61 16.1 54 12.3 78 78 ENE 9 15 29.71 1006 10 16.0934 0 0
11:35 am 11:35 Cloudy 63 17.1 55 12.7 75 75 ENE 5 7 29.65 1004 10 16.0934 0 0
11:55 am 11:55 Cloudy 64 17.7 55 12.9 74 74 E 8 13 29.65 1004 10 16.0934 0 0
12:15 pm 12:15 Mostly Cloudy 66 18.7 56 13.4 71 71 ENE 7 11 29.65 1004 10 16.0934 0 0
12:35 pm 12:35 Mostly Cloudy 67 19.6 57 13.7 69 69 E 8 13 29.62 1003 10 16.0934 0 0
12:55 pm 12:55 Mostly Cloudy 68 20.1 56 13.6 66 66 E 8 13 29.59 1002 10 16.0934 0 0
1:15 pm 13:15 Partly Cloudy 71 21.6 58 14.2 63 63 ESE 8 13 29.59 1002 10 16.0934 0 0
1:35 pm 13:35 Partly Cloudy 72 22.2 57 14.1 60 60 ESE 9 15 29.56 1001 10 16.0934 0 0
1:55 pm 13:55 Partly Cloudy 73 22.8 57 13.8 57 57 SE 16 26 29.56 1001 10 16.0934 0 0
2:15 pm 14:15 Partly Cloudy 74 23.1 56 13.5 55 55 ESE 14 22 29.56 1001 10 16.0934 0 0
2:35 pm 14:35 Partly Cloudy 74 23.3 56 13.6 55 55 ESE 15 24 29.5 999 10 16.0934 0 0
2:55 pm 14:55 Partly Cloudy 74 23.3 56 13.1 53 53 SE 18 30 29.56 1001 10 16.0934 0 0
3:15 pm 15:15 Partly Cloudy 74 23.6 56 13.4 53 53 SE 16 26 29.5 999 10 16.0934 0 0
3:35 pm 15:35 Partly Cloudy 73 22.6 56 13.4 56 56 SE 17 28 29.53 1000 10 16.0934 0 0
3:55 pm 15:55 Partly Cloudy 73 22.9 55 12.6 52 52 SSE 15 24 29.53 1000 10 16.0934 0 0
4:15 pm 16:15 Partly Cloudy 73 22.9 55 12.8 53 53 SSE 20 31 29.53 1000 10 16.0934 0 0
4:35 pm 16:35 Partly Cloudy 73 22.7 56 13.4 56 56 SE 18 30 29.53 1000 10 16.0934 0 0
4:55 pm 16:55 Partly Cloudy 71 21.5 56 13.5 60 60 SSE 17 28 29.5 999 10 16.0934 0 0
5:15 pm 17:15 Sunny 70 21.3 55 13 59 59 SSE 16 26 29.5 999 10 16.0934 0 0
5:35 pm 17:35 Sunny 70 21.2 55 12.8 59 59 SSE 18 30 29.5 999 10 16.0934 0 0
5:55 pm 17:55 Sunny 70 21.3 55 12.9 59 59 S 16 26 29.5 999 10 16.0934 0 0
6:15 pm 18:15 Partly Cloudy 71 21.6 55 13 58 58 S 14 22 29.5 999 10 16.0934 0 0
6:35 pm 18:35 Partly Cloudy 72 22.1 56 13.2 57 57 S 14 22 29.47 998 10 16.0934 0 0
6:55 pm 18:55 Partly Cloudy 71 21.8 56 13.1 58 58 S 17 28 29.47 998 10 16.0934 0 0
7:15 pm 19:15 Sunny with Thunderstorms 70 21.2 55 13 60 60 SSE 15 24 29.47 998 10 16.0934 0 0
7:35 pm 19:35 Sunny with Nearby Thunderstorms 69 20.7 56 13.1 62 62 SSE 31 50 29.47 998 10 16.0934 0 0
7:55 pm 19:55 Partly Cloudy with Thunderstorms 63 17.2 48 8.7 58 58 S 28 44 29.53 1000 7 11.26538 0 0
8:15 pm 20:15 Windy with Storms Likely 58 14.2 49 9.7 75 75 S 29 46 29.62 1003 5 8.0467 0.02 0.508
8:35 pm 20:35 Cloudy with Thunderstorms 56 13.4 51 10.8 84 84 SSE 16 26 29.65 1004 7 11.26538 0.09 2.286
8:55 pm 20:55 Cloudy 55 13 52 11 88 88 ESE 8 13 29.62 1003 7 11.26538 0.14 3.556
9:15 pm 21:15 Partly Cloudy with Light Rain 55 12.8 52 11.1 90 90 ENE 8 13 29.59 1002 10 16.0934 0.01 0.254
9:35 pm 21:35 Clear 55 12.6 52 11.1 91 91 E 6 9 29.59 1002 10 16.0934 0.01 0.254
9:55 pm 21:55 Clear 54 12.4 51 10.7 89 89 Calm 29.65 1004 10 16.0934 0.01 0.254
10:15 pm 22:15 Clear 55 12.8 51 10.5 86 86 SW 6 9 29.62 1003 10 16.0934 0 0
10:35 pm 22:35 Clear 55 12.6 50 10.2 85 85 Calm 29.59 1002 10 16.0934 0 0
10:55 pm 22:55 Clear 54 12.2 51 10.5 89 89 Calm 29.62 1003 10 16.0934 0 0
11:15 pm 23:15 Clear 53 11.8 51 10.5 92 92 Calm 29.62 1003 10 16.0934 0.01 0.254
11:35 pm 23:35 Clear 53 11.6 51 10.3 92 92 NNE 6 9 29.62 1003 10 16.0934 0.01 0.254
11:55 pm 23:55 Clear 53 11.5 51 10.4 93 93 Calm 29.62 1003 10 16.0934 0.01 0.254

Powered by AerisWeather